Location: Boitzum
(52.1496°N, 9.6943°E)
Time: 14:27:38
(UTC+00:00)

Cosmos 2082 Rocket - Pass Details

Date: 13 January 2026
Orbit: 831 x 853 km, 71.0° (Epoch: 16 February)

Event Time Altitude Azimuth Distance (km) Brightness Sun altitude
Exits shadow 03:41:21 20° 11° (NNE) 1,884 4.1 -33.3°
Maximum altitude 03:42:55 22° 34° (NE) 1,778 4.2 -33.1°
Drops below altitude 10° 03:47:15 10° 84° (E) 2,472 5.5 -32.4°
Sets 03:50:17 0° 99° (E) 3,408 6.4 -32.0°
